Weather in Oktyabrskaya

Russia / Vladimir Oblast     56°04′15″N   42°07′26″E
temp.,
°C
wind,
m/s
gust,
m/s
humid.,
%
clouds,
%
prec.,
mm/h
press.,
hPa
HPBL,
m
3 march, wed
wed300:00−2nw5119383 0.1 1006593
03:00−5nw5128957 0.1 1008502
06:00−7nw5129093 0.0 1009527
09:00−6nw6118896 0.1 1011580
12:00−3nw61079100 0.0 1011970
15:00−2wnw598397 0.1 1011924
18:00−4wsw4109492 0.1 1008394
21:00−2w5129095 0.4 1008703
4 march, thu
thu400:00−2w51193100 0.1 1005610
03:00−2wsw61393100 0.2 1003663
06:00−2wsw51295100 0.3 999623
09:000wnw61193100 2.8 998875
12:000wnw61173100 0.2 9981197
15:00−1wnw5875100 0.2 999939
18:00−4nw2489100 0.0 999107
21:00−5nw1292100 0.0 100030
5 march, fri
fri500:00−7n2493100 0.0 1000107
03:00−8n2592100 0.0 1002151
06:00−9n3693100 0.0 1003183
09:00−9n359075 0.0 1005258
12:00−6nnw357712 0.0 1007627
15:00−5nnw23706 0.0 1009767
18:00−9nnw118233 0.0 101021
21:00−10sw228946 0.0 101125
6 march, sat
sat600:00−11wsw22925 0.0 101231
03:00−10wsw229640 0.1 101244
06:00−10nnw369599 0.4 1013260
09:00−11nnw478781 0.4 1014379
12:00−10nnw457540 0.0 1015852
15:00−8nw356852 0.0 1015927
18:00−11w368447 0.0 1014165
21:00−13sw358823 0.0 1014126
7 march, sun
sun700:00−13sw49890 0.0 1012212
03:00−13ssw499512 0.0 1010228
06:00−11ssw6128994 0.0 1006466
09:00−8ssw8149197 0.1 1002938
12:00−5ssw91587100 0.4 9971166
15:00−4ssw91592100 1.4 9921179
18:00−3sw81693100 1.1 9901165
21:00−7w41182100 2.8 991699